TimeMDT,TemperatureF,Dew PointF,Humidity,Sea Level PressureIn,VisibilityMPH,Wind Direction,Wind SpeedMPH,Gust SpeedMPH,PrecipitationIn,Events,Conditions,WindDirDegrees,DateUTC
12:53 AM,75.0,53.1,46,29.84,10.0,SSW,10.4,-,N/A,,Clear,200,2013-08-24 06:53:00
1:53 AM,73.0,54.0,51,29.84,10.0,SSW,8.1,-,N/A,,Clear,210,2013-08-24 07:53:00
2:53 AM,69.1,55.0,61,29.85,10.0,SSW,6.9,-,N/A,,Clear,210,2013-08-24 08:53:00
3:53 AM,64.9,55.0,70,29.87,10.0,WNW,4.6,-,N/A,,Clear,290,2013-08-24 09:53:00
4:53 AM,60.1,54.0,80,29.89,10.0,Calm,Calm,-,N/A,,Clear,0,2013-08-24 10:53:00
5:53 AM,57.9,55.0,90,29.90,10.0,SSE,6.9,-,N/A,,Clear,150,2013-08-24 11:53:00
6:53 AM,64.0,55.9,75,29.91,10.0,South,5.8,-,N/A,,Clear,170,2013-08-24 12:53:00
7:53 AM,71.1,57.0,61,29.91,10.0,SSE,6.9,-,N/A,,Clear,150,2013-08-24 13:53:00
8:53 AM,79.0,57.0,47,29.90,10.0,South,9.2,-,N/A,,Clear,180,2013-08-24 14:53:00
9:53 AM,82.9,57.9,42,29.91,10.0,SSW,8.1,-,N/A,,Clear,200,2013-08-24 15:53:00
10:53 AM,89.1,57.0,34,29.88,10.0,South,9.2,-,N/A,,Clear,180,2013-08-24 16:53:00
11:53 AM,93.9,53.1,25,29.85,10.0,SSW,18.4,25.3,N/A,,Clear,200,2013-08-24 17:53:00
12:53 PM,96.1,54.0,24,29.84,10.0,South,19.6,26.5,N/A,,Clear,180,2013-08-24 18:53:00
1:53 PM,98.1,50.0,20,29.83,10.0,South,18.4,27.6,N/A,,Clear,180,2013-08-24 19:53:00
2:53 PM,100.0,48.0,17,29.81,10.0,SSW,15.0,26.5,N/A,,Clear,200,2013-08-24 20:53:00
3:53 PM,99.0,48.0,18,29.81,10.0,South,15.0,25.3,N/A,,Clear,180,2013-08-24 21:53:00
4:53 PM,99.0,50.0,19,29.81,10.0,South,16.1,31.1,N/A,,Clear,180,2013-08-24 22:53:00
5:53 PM,93.9,51.1,23,29.82,10.0,South,15.0,26.5,N/A,,Clear,170,2013-08-24 23:53:00
6:53 PM,91.9,51.1,25,29.82,10.0,South,18.4,25.3,N/A,,Clear,170,2013-08-25 00:53:00
7:53 PM,87.1,55.0,33,29.84,10.0,South,16.1,23.0,N/A,,Clear,170,2013-08-25 01:53:00
8:53 PM,86.0,55.9,36,29.86,10.0,South,13.8,20.7,N/A,,Clear,170,2013-08-25 02:53:00
9:53 PM,82.9,55.9,39,29.88,10.0,South,17.3,25.3,N/A,,Clear,170,2013-08-25 03:53:00
10:53 PM,81.0,55.9,42,29.88,10.0,South,15.0,23.0,N/A,,Clear,180,2013-08-25 04:53:00
11:53 PM,80.1,57.0,45,29.89,10.0,South,12.7,20.7,N/A,,Clear,180,2013-08-25 05:53:00